Temperature
21 21 21 21 21 21 22 23 24 24 24 24 24 24 22 21 20 18 18 18 18 18 17 17 17 17 17 17 17 17 17 17 17 17 17 17 17 17 17 17 17 17 17 17 17 17 17 17 18
21 21 21 21 22 22 22 23 23 23 24 24 23 23 22 20 19 18 18 18 18 17 17 17 17 17 17 17 17 17 17 17 17 17 17 17 17 17 17 17 17 17 17 17 17 17 17 17 17
21 21 22 22 23 22 22 23 23 23 23 24 23 22 21 20 19 18 18 18 18 17 17 17 17 17 17 17 17 17 17 17 17 17 17 17 17 17 17 17 17 17 17 17 17 17 17 17 17
22 22 23 23 22 23 23 23 23 24 23 23 23 21 19 19 18 18 18 18 17 17 17 17 17 17 17 17 17 17 17 17 17 17 17 17 17 17 17 17 17 17 17 17 17 17 17 17 17
22 23 23 23 23 23 24 24 24 24 23 23 22 20 19 18 18 18 18 18 17 17 17 17 17 17 17 17 17 17 17 17 17 17 17 17 17 17 17 17 17 17 17 17 17 17 17 17 17
23 24 23 22 23 23 24 24 24 23 23 23 22 20 18 18 18 18 18 18 17 17 17 17 17 17 17 17 17 17 17 17 17 17 17 17 17 17 17 17 17 17 17 17 17 17 16 16 16
23 22 22 23 22 23 24 24 23 23 23 22 22 20 19 18 18 18 18 18 18 17 17 17 17 17 17 17 17 17 17 17 17 17 17 16 16 16 16 17 17 17 17 17 16 16 16 16 16
23 23 23 23 22 22 23 23 23 23 22 22 21 20 19 18 18 18 18 18 18 17 17 17 17 17 17 17 17 17 17 17 17 17 16 16 16 16 16 16 16 17 17 16 16 16 16 16 16
24 22 22 23 22 23 23 23 22 22 22 21 21 20 19 18 18 18 18 18 18 17 17 17 17 17 17 17 16 17 17 17 16 16 16 16 16 16 16 16 16 16 16 16 16 16 16 16 16
24 22 23 24 24 23 23 23 23 22 22 21 20 19 19 19 19 18 18 18 18 17 17 17 17 17 17 16 16 16 16 16 16 16 16 16 16 16 16 16 16 16 16 16 16 16 16 16 16
24 23 23 24 24 23 23 23 23 23 21 21 20 19 19 19 19 18 18 18 18 17 17 17 17 17 17 17 16 16 16 16 16 16 16 16 16 16 16 16 16 16 16 16 16 16 16 16 16
24 24 24 24 24 23 23 23 23 22 21 21 20 20 19 19 19 18 18 18 18 17 17 17 17 17 17 17 16 16 16 16 16 16 16 16 16 16 16 16 16 15 15 15 15 15 15 15 15
24 24 24 23 23 23 23 22 22 22 21 21 20 20 19 19 19 18 18 18 18 17 17 17 17 17 17 16 16 16 16 16 16 16 16 16 16 16 16 15 15 15 15 15 15 15 15 15 15
24 24 24 23 23 23 23 22 22 21 21 21 20 20 19 19 19 19 18 18 18 17 17 17 17 17 16 16 16 16 16 16 16 16 16 16 16 16 16 15 15 15 15 15 15 15 15 15 15
24 24 23 23 23 23 23 22 22 21 21 21 20 20 19 19 18 18 18 18 17 17 17 17 16 16 16 16 16 15 15 15 15 15 15 15 15 15 15 15 15 15 15 15 15 15 15 15 14
24 23 22 23 24 23 22 20 22 22 21 21 20 20 19 19 18 18 18 18 17 17 17 16 16 16 16 15 15 15 15 15 15 15 15 15 15 15 15 15 15 15 15 15 14 14 14 14 14
24 23 22 23 24 24 22 21 22 22 21 21 20 20 19 19 18 18 17 17 17 17 17 16 16 16 15 15 15 15 15 15 15 15 15 15 15 15 15 14 14 14 14 14 14 14 14 14 14
23 23 23 23 23 23 22 21 22 22 22 21 21 20 20 19 18 18 17 17 17 17 16 16 16 15 15 15 15 15 14 14 14 14 14 14 14 14 14 14 14 14 14 14 14 14 14 14 14
24 24 23 23 24 23 22 22 22 22 22 21 21 20 20 19 19 18 17 17 17 16 16 16 15 15 15 15 14 14 14 14 14 14 14 14 14 14 14 14 14 14 14 14 13 13 13 13 13
24 23 23 23 24 23 22 22 22 22 21 21 21 20 20 19 19 18 17 17 16 16 16 16 15 15 15 14 14 14 14 14 14 13 13 14 14 14 14 14 14 13 13 13 13 13 13 13 13
24 23 23 23 23 23 22 21 22 22 22 21 21 20 19 19 18 18 17 17 16 16 16 15 15 15 15 14 14 14 14 14 13 13 13 13 13 13 13 13 13 13 13 13 13 12 12 12 12
23 23 23 23 22 22 22 20 21 22 21 21 20 20 19 19 18 18 17 16 16 16 16 15 15 15 14 14 14 14 13 13 13 13 13 13 13 13 13 13 13 13 12 12 12 12 12 12 12
23 23 23 23 22 22 22 21 21 22 21 20 20 19 19 19 18 17 17 16 16 16 15 15 15 15 14 14 14 14 13 13 13 13 13 13 13 12 12 12 12 12 12 12 12 12 12 11 11
23 23 23 23 22 21 22 21 20 21 21 20 20 19 18 18 18 17 17 16 16 15 15 15 15 14 14 14 14 13 13 13 13 13 12 12 12 12 12 12 12 12 12 12 12 11 11 11 11
23 22 21 21 20 21 23 22 20 21 21 21 20 19 18 18 17 17 16 16 15 15 15 15 14 14 14 14 13 13 13 13 13 12 12 12 12 12 12 12 12 12 11 11 11 11 11 11 11
22 22 20 20 21 21 23 21 20 21 21 21 20 19 18 17 17 16 16 15 15 15 15 14 14 14 13 13 13 13 13 12 12 12 12 12 12 12 12 11 12 11 11 11 11 11 11 11 10
22 22 23 21 22 21 22 21 20 21 21 20 19 18 18 17 16 16 15 15 15 15 14 14 14 13 13 13 13 12 12 12 12 12 12 11 11 11 11 11 11 11 11 11 11 11 10 10 10
22 22 21 21 20 20 21 21 20 20 20 20 19 19 18 17 16 16 15 15 15 14 14 14 13 13 13 13 12 12 12 12 12 11 11 11 11 11 11 11 11 11 11 11 11 10 10 10 10
22 21 21 21 21 20 19 20 22 21 20 20 19 19 18 17 16 16 15 15 14 14 14 13 13 13 13 12 12 12 12 11 11 11 11 11 11 11 11 10 10 10 10 10 10 10 10 10 10
22 22 21 20 20 21 20 19 22 21 20 20 19 18 17 17 16 15 15 14 14 13 13 13 13 13 12 12 12 12 11 11 11 11 11 10 10 10 10 10 10 10 10 10 10 10 10 10 10
Wind_Speed
9 10 6 2 2 1 4 5 6 6 6 8 9 9 12 11 8 7 2 4 6 8 10 10 10 11 11 11 11 12 12 13 13 12 12 12 12 11 11 10 9 9 9 9 10 10 10 10 9
9 6 3 3 2 2 4 5 7 8 7 6 7 10 12 11 10 6 3 3 6 8 10 10 10 11 11 11 11 11 12 13 13 12 12 11 12 12 11 10 10 10 9 9 10 10 9 9 8
10 7 3 2 2 4 4 7 7 9 7 6 7 10 8 7 7 4 3 4 8 9 12 11 10 11 11 11 12 12 12 12 12 12 12 12 12 11 11 11 11 11 10 10 10 10 9 9 8
6 3 3 1 6 6 5 6 6 7 6 7 8 8 7 8 6 6 5 6 9 9 12 11 11 11 11 11 12 12 13 12 12 12 12 12 12 12 11 11 11 11 11 10 9 10 10 9 8
3 2 1 4 6 6 6 6 6 7 6 8 10 9 8 8 9 8 6 6 8 9 11 11 11 11 11 12 12 12 12 11 11 11 11 12 12 12 11 11 11 11 10 10 9 9 9 9 8
2 2 1 5 6 6 6 6 7 8 8 8 9 10 6 7 7 5 6 6 7 9 10 11 11 11 12 12 11 11 11 10 10 10 10 11 11 11 11 11 11 10 10 10 9 9 9 8 7
1 2 2 5 5 5 5 6 6 7 8 7 7 7 6 7 5 5 6 6 7 8 8 8 10 10 11 11 11 10 9 8 8 8 7 8 9 10 10 10 10 10 9 9 8 7 7 7 6
2 1 2 3 4 4 5 7 6 7 7 7 6 6 6 6 5 5 5 5 5 6 6 6 8 9 8 9 9 9 8 6 5 5 5 5 7 9 9 9 9 9 8 7 6 5 5 4 3
1 1 2 2 3 4 5 6 5 7 7 7 8 9 9 9 7 5 5 5 5 5 4 4 5 6 8 8 8 7 6 4 3 3 2 2 5 7 8 8 8 7 6 5 4 3 3 2 2
1 1 2 3 4 4 5 5 4 5 7 7 9 10 10 8 6 6 5 5 5 4 4 4 4 4 6 6 6 4 4 3 3 4 4 4 5 5 6 7 6 5 4 3 2 1 1 1 2
2 3 4 5 5 5 4 4 3 4 5 5 8 10 9 7 5 4 5 5 6 5 3 4 4 4 4 4 4 3 3 3 5 6 6 5 4 4 5 4 3 3 2 2 2 1 2 3 4
3 5 5 5 4 4 3 3 5 5 4 6 8 9 8 6 5 4 4 5 6 5 3 3 3 3 3 4 3 3 3 3 4 5 6 5 3 3 3 3 3 3 3 3 3 3 6 6 7
4 4 5 5 3 3 4 4 4 4 4 6 8 9 7 6 5 5 4 5 5 5 4 3 2 3 3 4 2 4 4 4 5 5 5 6 3 2 3 4 4 4 4 3 3 4 5 5 6
4 5 4 4 4 3 4 3 2 3 4 6 7 8 6 4 4 4 4 4 4 5 4 3 2 3 4 3 3 3 4 4 5 5 5 7 5 4 3 4 4 4 4 4 4 4 4 4 4
5 5 4 3 4 3 2 2 1 4 5 5 6 7 6 5 4 4 4 4 4 4 5 4 3 4 5 5 4 4 4 5 4 5 6 7 6 6 5 4 3 4 6 6 5 5 4 4 5
7 5 3 3 4 3 3 2 2 5 5 4 5 6 6 5 4 3 3 3 4 4 5 5 4 4 5 5 4 3 5 5 5 6 7 7 7 7 5 3 3 5 5 4 3 3 4 4 5
5 4 5 5 5 4 3 2 2 4 5 4 4 6 7 6 5 4 4 4 3 4 5 5 4 4 5 5 3 4 5 5 5 7 7 8 8 8 6 4 4 5 4 3 4 4 3 3 3
3 3 3 3 4 4 4 3 4 4 5 5 5 5 6 7 6 5 5 4 3 4 5 5 5 4 5 3 3 3 4 4 5 5 6 8 8 8 6 4 5 5 3 3 3 3 3 3 2
5 4 3 2 3 3 3 3 4 5 5 5 4 4 5 6 7 7 6 5 4 4 4 4 4 4 3 2 2 2 2 2 3 4 6 6 7 6 4 3 4 4 3 3 4 3 3 3 2
5 5 3 2 2 2 3 4 4 5 5 4 4 3 4 4 4 6 6 5 4 3 4 4 4 4 3 3 2 2 2 2 2 3 4 5 5 5 4 3 3 3 2 3 3 3 2 1 2
4 4 4 3 3 4 3 4 4 5 5 5 5 3 3 4 3 6 6 5 4 3 3 4 4 4 4 4 2 2 2 1 1 1 2 3 5 5 5 4 4 3 2 2 2 2 2 1 2
4 4 5 6 6 4 5 4 4 6 5 5 4 4 3 3 4 5 6 5 4 3 3 3 3 4 4 4 3 2 1 1 1 1 1 2 3 4 4 3 3 2 3 2 1 2 1 2 1
4 5 7 9 8 7 6 4 3 5 5 4 4 4 3 3 4 5 6 6 4 4 3 2 3 3 3 3 3 2 2 1 1 2 2 2 3 4 3 3 3 2 2 2 2 2 2 2 1
6 8 9 9 7 7 6 4 1 1 2 4 4 4 3 4 5 4 5 5 4 4 4 3 3 3 2 2 3 3 2 2 2 2 2 1 1 2 3 3 3 3 2 2 2 2 2 2 2
5 6 4 4 5 3 2 2 2 3 3 5 5 5 4 4 5 5 5 4 4 4 3 3 4 3 2 2 2 2 1 2 2 1 1 1 1 1 1 3 2 3 3 3 2 2 2 2 2
6 6 4 4 3 2 2 1 4 5 5 5 6 6 5 6 4 4 5 4 4 4 3 3 4 2 2 2 1 1 1 1 1 1 1 1 1 1 1 3 3 3 3 3 2 1 1 2 2
6 5 6 6 9 6 2 3 4 5 5 6 6 6 5 5 5 4 5 5 4 3 3 3 2 2 2 1 2 2 2 2 1 1 1 1 1 2 3 3 2 2 2 2 2 1 1 1 1
6 6 5 4 4 4 2 2 2 5 4 5 5 5 5 5 5 5 4 4 3 3 3 3 2 2 2 1 1 2 2 2 1 1 2 2 2 2 2 2 2 2 2 2 2 1 1 1 0
4 5 5 5 4 4 3 1 2 3 4 4 4 5 5 4 4 4 4 4 4 3 3 2 2 1 1 1 1 2 2 2 2 1 1 2 2 2 1 1 1 1 1 1 1 1 1 1 0
5 5 5 5 5 5 4 1 3 3 4 4 4 4 5 5 4 4 4 4 3 3 2 2 1 1 1 1 1 2 2 2 2 1 1 1 1 1 1 1 1 0 1 1 0 0 0 0 0
Wind_Direction
264 248 239 254 253 144 61 60 61 58 63 52 51 64 67 52 54 92 113 67 80 95 91 74 67 65 63 65 66 64 63 62 60 61 64 64 65 67 69 69 66 69 72 72 72 72 73 73 71
268 266 257 240 260 79 69 62 65 64 73 76 64 68 72 65 69 89 81 72 83 91 91 80 73 70 67 69 69 67 64 63 62 62 65 66 65 65 67 68 67 69 71 73 74 71 70 70 69
262 258 260 256 37 60 69 68 73 75 62 67 74 59 57 68 76 90 89 78 78 81 89 87 81 76 73 71 69 68 67 65 64 61 62 64 64 65 65 65 67 68 70 73 72 72 71 70 68
261 244 238 81 68 62 75 83 86 88 73 62 79 71 64 60 82 98 92 82 86 86 92 93 88 82 78 74 71 69 67 65 64 62 61 63 65 64 64 65 64 64 65 68 71 72 70 68 64
249 251 179 88 78 77 76 85 91 88 84 74 81 88 82 70 82 93 94 85 91 94 97 98 93 87 83 78 73 70 67 66 65 64 65 65 65 66 67 67 64 62 64 67 70 71 69 67 63
283 260 103 87 85 79 72 73 78 81 86 84 92 98 89 94 91 96 93 87 91 98 102 106 104 96 88 82 76 73 70 68 67 68 71 72 72 71 69 69 67 64 66 68 67 68 70 66 59
304 357 69 90 92 80 67 64 67 75 71 72 88 96 108 101 102 112 102 99 98 102 109 114 117 111 100 92 84 79 74 73 74 73 77 82 83 81 79 74 71 69 71 71 70 71 73 69 58
318 334 86 92 92 86 79 75 64 70 65 59 73 95 113 119 128 116 104 94 92 94 106 120 121 119 114 111 103 96 87 80 83 87 86 93 100 95 88 82 78 74 73 77 76 76 77 68 55
285 107 80 86 103 106 99 93 93 91 82 73 71 91 114 130 132 117 106 98 91 84 83 96 111 115 113 117 118 121 113 107 98 95 90 107 106 100 95 92 90 84 81 82 85 83 79 72 56
132 82 66 67 89 107 108 104 115 115 96 89 88 96 114 127 130 126 118 109 100 87 74 85 86 91 97 96 110 116 103 111 97 79 67 57 67 86 100 115 110 106 99 90 98 117 84 26 77
102 93 74 64 76 105 112 112 101 111 101 108 117 124 128 128 122 119 118 117 108 98 79 77 75 75 83 80 82 76 83 71 54 53 60 50 53 81 104 132 135 140 113 46 58 70 54 65 69
104 94 86 79 72 95 105 98 85 79 90 108 116 124 131 132 133 126 115 110 113 103 83 74 80 83 88 80 70 63 56 53 48 41 55 57 44 36 40 61 55 61 53 24 29 44 47 44 54
112 110 106 105 100 101 105 94 93 91 90 109 123 130 134 139 147 137 123 118 117 118 111 90 71 78 75 73 61 74 57 47 49 32 45 58 50 33 41 50 45 43 42 34 28 47 48 45 39
122 124 125 135 134 130 122 116 110 123 133 132 133 132 134 136 130 127 121 117 114 118 113 95 77 78 77 69 56 62 64 63 51 28 31 53 45 43 45 54 36 29 31 34 46 57 56 57 50
167 158 147 161 170 179 134 90 154 150 148 143 140 133 129 123 122 108 103 109 117 116 111 97 76 63 67 66 50 57 57 60 50 28 30 46 47 44 46 45 44 29 29 35 42 50 48 57 57
211 197 186 188 194 187 205 184 180 157 154 142 144 136 136 133 134 120 112 99 108 113 104 95 85 71 69 61 55 52 53 48 50 39 32 36 47 55 48 40 43 39 34 32 41 50 53 48 49
223 220 190 187 199 194 196 177 160 168 164 158 156 153 149 144 145 127 113 103 103 105 104 105 93 80 76 66 58 48 57 50 47 44 34 28 30 50 54 34 41 47 38 29 39 42 56 59 55
254 258 229 197 178 182 188 192 177 193 180 174 168 163 157 153 155 143 130 121 108 96 99 105 101 92 88 80 63 51 46 42 49 47 43 30 25 41 51 40 45 46 46 31 43 52 49 59 58
277 272 260 209 167 199 210 209 193 192 188 179 166 168 164 163 157 150 142 137 123 112 109 101 103 95 91 88 75 61 45 35 44 48 46 36 32 37 47 45 49 51 54 36 43 50 53 44 49
277 280 271 221 198 225 226 219 201 182 179 171 166 175 162 145 156 145 139 136 136 130 122 116 113 109 98 83 83 94 77 49 50 45 40 36 38 31 34 50 62 70 67 46 47 55 40 30 32
268 285 276 258 248 241 248 239 203 176 170 164 167 158 139 141 150 149 145 140 134 138 134 133 127 122 112 107 88 74 74 55 46 61 38 28 42 37 32 43 63 66 80 83 58 67 58 27 1
284 306 287 263 252 246 230 253 215 175 164 160 155 142 145 156 154 149 146 146 143 140 123 125 131 124 121 117 112 117 123 119 74 84 70 28 47 51 45 38 56 70 70 80 51 69 57 54 3
292 290 273 267 260 267 250 246 211 176 166 157 145 137 138 140 144 144 146 141 139 133 127 128 129 118 117 124 132 123 86 91 78 80 73 43 45 44 47 39 42 62 78 89 59 50 46 61 46
276 272 259 256 256 256 243 231 192 169 161 140 125 124 122 122 122 126 133 131 128 123 130 137 130 122 122 113 114 115 103 94 76 62 58 39 46 28 37 51 40 48 60 64 60 63 52 42 43
269 277 271 240 222 241 209 196 144 108 105 127 126 124 121 110 115 124 122 123 127 129 133 131 116 107 106 110 105 111 128 130 120 100 81 58 50 31 6 42 49 50 53 55 51 44 47 41 48
271 267 274 291 284 281 231 178 131 121 112 112 120 122 124 117 117 123 123 126 125 122 129 129 122 127 123 124 120 102 98 109 116 121 96 75 63 43 43 55 54 54 55 52 54 53 38 43 31
283 276 272 279 285 284 235 136 143 134 128 122 128 126 124 124 126 128 126 127 120 118 110 107 122 135 132 136 132 125 108 88 94 92 81 81 76 59 58 61 54 47 59 62 70 68 51 52 30
264 288 293 280 297 290 257 226 184 156 151 142 135 128 129 132 132 130 121 119 118 111 103 103 105 130 144 134 131 118 116 114 99 86 86 93 85 64 69 65 45 34 42 56 75 73 55 74 84
246 252 265 273 264 282 295 358 50 130 143 144 138 132 128 128 130 126 122 114 105 99 96 93 105 122 135 120 120 119 117 122 122 102 94 91 95 94 101 95 59 22 20 31 89 91 70 51 354
260 268 272 282 290 285 283 301 45 85 100 105 113 116 124 128 122 116 111 110 108 103 98 89 73 87 94 117 112 110 99 102 119 118 118 112 116 113 112 118 135 11 346 2 68 119 38 92 325
Height
1487 1487 1488 1490 1491 1494 1497 1492 1488 1489 1490 1492 1492 1492 1497 1501 1507 1517 1516 1514 1513 1512 1511 1510 1510 1510 1510 1509 1509 1509 1509 1509 1509 1508 1508 1508 1508 1508 1508 1509 1509 1509 1510 1510 1510 1510 1511 1512 1512
1487 1489 1490 1490 1492 1500 1500 1492 1491 1491 1493 1493 1494 1496 1499 1505 1510 1513 1514 1514 1514 1513 1511 1511 1511 1511 1511 1511 1511 1511 1511 1510 1510 1510 1510 1510 1510 1510 1510 1510 1510 1510 1511 1511 1511 1511 1512 1512 1512
1487 1489 1490 1489 1492 1498 1499 1493 1492 1493 1494 1494 1497 1500 1504 1510 1512 1514 1515 1515 1514 1513 1512 1512 1512 1512 1512 1512 1512 1512 1512 1512 1512 1512 1511 1511 1511 1511 1511 1511 1511 1511 1512 1512 1512 1512 1513 1513 1513
1488 1489 1489 1491 1496 1493 1493 1493 1493 1494 1496 1497 1499 1504 1510 1513 1514 1515 1515 1515 1515 1514 1514 1513 1514 1514 1514 1514 1514 1514 1513 1513 1513 1513 1513 1513 1512 1512 1512 1512 1512 1513 1513 1513 1513 1513 1513 1513 1513
1489 1488 1490 1494 1495 1492 1491 1492 1493 1495 1497 1499 1502 1508 1513 1515 1515 1516 1516 1516 1516 1516 1515 1515 1515 1515 1515 1515 1515 1515 1515 1515 1514 1514 1514 1514 1514 1514 1514 1513 1513 1514 1514 1514 1514 1514 1514 1514 1514
1489 1487 1493 1499 1497 1493 1492 1493 1495 1497 1499 1501 1504 1509 1514 1516 1516 1517 1517 1518 1518 1518 1517 1517 1517 1517 1517 1517 1517 1517 1517 1516 1516 1516 1516 1515 1515 1515 1515 1514 1514 1514 1514 1514 1515 1515 1515 1515 1515
1490 1490 1494 1497 1499 1497 1496 1496 1497 1499 1500 1502 1505 1509 1515 1517 1517 1518 1519 1519 1519 1519 1519 1519 1519 1519 1519 1519 1519 1519 1518 1518 1518 1517 1517 1517 1517 1516 1516 1516 1515 1515 1515 1515 1515 1516 1516 1516 1516
1490 1491 1494 1497 1500 1500 1498 1498 1500 1501 1504 1505 1506 1510 1515 1517 1518 1519 1520 1520 1520 1521 1521 1520 1520 1520 1520 1520 1520 1520 1520 1520 1519 1519 1519 1519 1518 1518 1518 1517 1517 1517 1517 1517 1517 1517 1517 1517 1517
1490 1495 1500 1498 1499 1500 1499 1500 1503 1504 1506 1507 1508 1511 1515 1517 1519 1520 1520 1521 1521 1522 1522 1522 1522 1522 1522 1522 1522 1522 1521 1521 1521 1521 1521 1521 1521 1520 1520 1519 1519 1518 1518 1518 1518 1518 1518 1518 1518
1491 1498 1498 1494 1495 1498 1499 1501 1502 1504 1506 1509 1511 1514 1516 1518 1519 1520 1521 1521 1521 1522 1523 1523 1524 1524 1524 1523 1523 1523 1523 1522 1522 1523 1522 1522 1522 1522 1521 1521 1520 1520 1519 1519 1519 1518 1518 1518 1519
1491 1495 1495 1495 1496 1498 1500 1502 1503 1504 1508 1510 1512 1515 1517 1518 1519 1520 1521 1522 1522 1523 1523 1524 1524 1524 1524 1524 1524 1524 1524 1524 1524 1523 1523 1523 1522 1522 1522 1521 1521 1521 1520 1520 1520 1520 1519 1519 1519
1493 1494 1496 1497 1499 1500 1501 1503 1504 1506 1509 1510 1512 1514 1516 1518 1520 1521 1521 1522 1523 1524 1524 1524 1525 1525 1525 1525 1525 1525 1525 1525 1524 1524 1524 1523 1523 1523 1523 1522 1522 1522 1522 1521 1521 1521 1520 1520 1520
1494 1496 1497 1500 1501 1502 1503 1504 1505 1507 1509 1511 1513 1515 1517 1518 1520 1521 1522 1523 1523 1524 1525 1525 1525 1525 1525 1525 1525 1526 1525 1525 1525 1525 1524 1524 1523 1523 1523 1523 1523 1522 1522 1522 1522 1521 1521 1520 1520
1495 1496 1498 1500 1501 1502 1503 1504 1506 1508 1509 1510 1512 1515 1516 1518 1519 1520 1522 1522 1523 1524 1525 1525 1526 1526 1525 1526 1526 1526 1526 1526 1525 1525 1525 1524 1524 1524 1523 1523 1523 1523 1522 1522 1522 1522 1521 1521 1520
1495 1496 1498 1499 1500 1501 1503 1507 1506 1508 1509 1510 1512 1514 1516 1518 1519 1520 1521 1522 1523 1524 1524 1525 1526 1526 1526 1526 1526 1526 1526 1526 1526 1525 1525 1524 1524 1523 1523 1522 1522 1522 1522 1522 1522 1522 1521 1521 1520
1493 1496 1503 1499 1498 1500 1505 1512 1506 1507 1508 1510 1511 1513 1515 1517 1518 1520 1521 1522 1523 1523 1524 1524 1525 1526 1526 1526 1526 1526 1526 1526 1526 1525 1525 1525 1524 1524 1523 1523 1523 1522 1522 1522 1522 1521 1521 1521 1520
1494 1499 1501 1500 1496 1497 1502 1507 1506 1506 1507 1508 1510 1512 1514 1516 1518 1519 1520 1521 1522 1523 1523 1524 1525 1525 1525 1525 1526 1526 1526 1526 1526 1525 1525 1524 1524 1524 1523 1523 1523 1522 1522 1522 1522 1521 1521 1520 1520
1499 1497 1497 1498 1496 1497 1501 1504 1503 1504 1504 1506 1508 1510 1512 1515 1517 1518 1519 1521 1522 1522 1523 1524 1524 1525 1525 1525 1525 1526 1526 1526 1525 1525 1525 1524 1524 1523 1523 1523 1523 1522 1522 1522 1522 1521 1521 1521 1521
1491 1494 1497 1495 1493 1496 1499 1501 1501 1502 1502 1504 1506 1508 1510 1512 1515 1516 1518 1520 1521 1521 1522 1523 1523 1524 1524 1524 1525 1525 1525 1525 1525 1525 1524 1524 1523 1523 1522 1522 1522 1522 1522 1522 1521 1521 1521 1521 1521
1491 1495 1496 1494 1491 1494 1498 1499 1497 1498 1500 1502 1504 1506 1508 1510 1512 1514 1516 1518 1519 1520 1521 1522 1523 1523 1523 1524 1524 1524 1524 1525 1525 1524 1524 1523 1523 1523 1522 1522 1522 1521 1521 1521 1521 1521 1520 1520 1521
1492 1495 1496 1496 1493 1493 1498 1501 1497 1496 1498 1500 1502 1505 1507 1509 1511 1513 1514 1516 1518 1519 1520 1521 1521 1522 1522 1523 1523 1524 1524 1524 1524 1524 1523 1523 1522 1522 1522 1521 1521 1521 1521 1520 1520 1520 1520 1520 1521
1496 1492 1492 1493 1498 1500 1497 1509 1497 1493 1496 1498 1501 1504 1506 1508 1509 1511 1513 1515 1516 1518 1519 1520 1520 1521 1521 1521 1522 1523 1523 1523 1523 1523 1522 1522 1522 1521 1521 1521 1520 1521 1520 1520 1520 1520 1520 1520 1520
1494 1491 1492 1492 1493 1497 1494 1503 1500 1491 1496 1497 1500 1502 1505 1506 1508 1509 1512 1513 1515 1516 1517 1519 1519 1519 1520 1520 1521 1521 1521 1522 1522 1522 1521 1521 1521 1521 1520 1520 1520 1520 1520 1520 1520 1520 1520 1520 1520
1490 1491 1490 1490 1493 1505 1493 1500 1503 1496 1494 1496 1498 1501 1504 1506 1507 1509 1510 1512 1514 1515 1516 1517 1518 1518 1519 1519 1519 1520 1520 1520 1520 1520 1520 1520 1520 1520 1520 1519 1519 1519 1519 1519 1519 1519 1519 1520 1520
1491 1498 1506 1507 1507 1503 1486 1494 1501 1492 1491 1494 1497 1500 1502 1505 1506 1507 1509 1510 1512 1513 1515 1516 1516 1516 1517 1518 1518 1518 1519 1519 1519 1519 1519 1519 1519 1519 1519 1519 1519 1518 1518 1519 1519 1519 1519 1519 1519
1492 1495 1510 1516 1509 1499 1487 1496 1496 1489 1491 1493 1496 1499 1502 1504 1505 1507 1508 1509 1511 1512 1514 1514 1514 1515 1516 1516 1516 1517 1517 1517 1517 1518 1518 1518 1518 1518 1518 1517 1517 1517 1517 1518 1518 1518 1518 1518 1518
1494 1493 1490 1499 1497 1499 1493 1492 1493 1489 1491 1493 1496 1499 1501 1503 1505 1506 1507 1509 1510 1511 1512 1513 1514 1514 1514 1515 1515 1516 1516 1516 1516 1516 1516 1516 1516 1516 1516 1516 1516 1516 1516 1516 1517 1517 1517 1517 1517
1491 1491 1495 1500 1507 1509 1499 1496 1497 1493 1492 1493 1495 1498 1500 1503 1504 1506 1507 1508 1509 1510 1511 1512 1512 1513 1513 1513 1514 1514 1515 1515 1515 1515 1515 1515 1515 1515 1515 1515 1515 1515 1515 1516 1516 1516 1516 1516 1516
1492 1494 1494 1494 1495 1506 1510 1505 1486 1488 1489 1491 1494 1497 1499 1501 1503 1504 1506 1508 1508 1509 1510 1510 1511 1511 1511 1512 1512 1513 1513 1513 1514 1514 1514 1514 1513 1513 1514 1514 1514 1514 1514 1514 1515 1515 1515 1515 1515
1488 1490 1494 1503 1500 1494 1501 1506 1485 1486 1488 1490 1493 1497 1499 1501 1502 1504 1505 1506 1507 1508 1509 1509 1509 1509 1510 1510 1510 1511 1511 1512 1512 1512 1512 1512 1512 1512 1512 1512 1512 1513 1513 1513 1513 1513 1514 1514 1514